Weather History for Cairns, QU

Change the Weather History Date:

Saturday, March 23, 2013

  Actual Average Record
Temperature  
Mean Temperature 78 °F -  
Max Temperature 82 °F 85 °F 89 °F (1999)
Min Temperature 75 °F 71 °F 69 °F (2003)
Cooling Degree Days 14    
Growing Degree Days 28 (Base 50)    
Moisture  
Dew Point 76 °F    
Average Humidity 89    
Maximum Humidity 94    
Minimum Humidity 76    
Precipitation  
Precipitation 0.55 in 0.36 in - ()
Sea Level Pressure  
Sea Level Pressure 29.90 in    
Wind  
Wind Speed 11 mph ()    
Max Wind Speed 21 mph    
Max Gust Speed 31 mph    
Visibility 6.0 miles    
Events Rain    
Averages and records for this station are not official NWS values.
T = Trace of Precipitation, MM = Missing Value Source: Averaged Metar Reports

Daily Weather History Graph

Daily Weather History Graph

Search for Another Location

Airport:

Trip Planner

Search our weather history database for the weather conditions in past years. The results will help you decide how hot, cold, wet, or windy it might be!

Date:

Astronomy

Mar. 23, 2013 Rise Set
Actual Time 6:21 AM AEST 6:25 PM AEST
Civil Twilight 5:59 AM AEST 6:47 PM AEST
Nautical Twilight 5:34 AM AEST 7:12 PM AEST
Astronomical Twilight 5:09 AM AEST 7:37 PM AEST
Moon 3:19 PM AEST (3/23) 2:21 AM AEST (3/23)
Length of Visible Light 12h 47m
Length of Day
12h 04m
Waxing Gibbous, 80% of the Moon is Illuminated
Mar 23
Waxing Gibbous
Mar 27
Full
Apr 3
Last Quarter
Apr 10
New
Apr 18
First Quarter

Hourly Weather History & Observations

Time (AEST) Temp. Heat Index Dew Point Humidity Pressure Visibility Wind Dir Wind Speed Gust Speed Precip Events Conditions
12:00 AM 78 °F - 75 °F 87% 29.94 in - SSW 8.1 mph - -   Overcast
12:00 AM 78.8 °F - 75.2 °F 89% 29.92 in 6.2 mi SSW 8.1 mph - N/A   Mostly Cloudy
12:30 AM 78.8 °F - 75.2 °F 89% 29.92 in 6.2 mi South 9.2 mph - N/A   Overcast
1:00 AM 79 °F - 74 °F 81% 29.91 in - SSE 8.1 mph - -  
1:00 AM 78.8 °F - 73.4 °F 83% 29.89 in 6.2 mi SSE 8.1 mph - N/A   Overcast
1:30 AM 78.8 °F - 75.2 °F 89% 29.89 in 5.6 mi South 11.5 mph - N/A   Mostly Cloudy
1:54 AM 78.8 °F - 75.2 °F 89% 29.86 in 3.1 mi South 10.4 mph - N/A Rain Light Rain Showers
2:00 AM 77.0 °F - 75.2 °F 94% 29.89 in 3.1 mi South 10.4 mph - N/A Rain Light Rain Showers
2:30 AM 77.0 °F - 75.2 °F 94% 29.86 in 4.3 mi South 11.5 mph - N/A Rain Light Rain Showers
3:00 AM 78 °F - 75 °F 89% 29.85 in - South 12.7 mph - -   Overcast
3:00 AM 77.0 °F - 75.2 °F 94% 29.83 in 6.2 mi South 12.7 mph - N/A   Mostly Cloudy
3:30 AM 78.8 °F - 75.2 °F 89% 29.83 in 6.2 mi South 16.1 mph - N/A   Overcast
4:00 AM 79 °F - 74 °F 81% 29.86 in - South 13.8 mph - -  
4:00 AM 78.8 °F - 75.2 °F 89% 29.83 in 6.2 mi South 13.8 mph - N/A   Overcast
4:30 AM 78.8 °F - 75.2 °F 89% 29.86 in 6.2 mi South 12.7 mph - N/A   Overcast
5:00 AM 78.8 °F - 75.2 °F 89% 29.86 in 6.2 mi South 10.4 mph - N/A   Overcast
5:30 AM 78.8 °F - 75.2 °F 89% 29.86 in 6.2 mi SSE 12.7 mph - N/A   Overcast
6:00 AM 78 °F - 76 °F 91% 29.88 in 6 mi South 12.7 mph - - Rain Light Rain Showers
6:00 AM 78.8 °F - 75.2 °F 89% 29.86 in 6.2 mi South 12.7 mph - N/A Rain Light Rain Showers
6:30 AM 78.8 °F - 75.2 °F 89% 29.89 in 6.2 mi South 10.4 mph - N/A   Mostly Cloudy
7:00 AM 79 °F - 76 °F 90% 29.90 in - South 10.4 mph - -  
7:00 AM 78.8 °F - 77.0 °F 94% 29.89 in 6.2 mi South 10.4 mph - N/A   Mostly Cloudy
7:30 AM 78.8 °F - 77.0 °F 94% 29.89 in 6.2 mi South 11.5 mph - N/A Rain Light Rain Showers
8:00 AM 80.6 °F 87.1 °F 77.0 °F 89% 29.89 in 6.2 mi South 11.5 mph - N/A   Mostly Cloudy
8:08 AM 78.8 °F - 77.0 °F 94% 29.92 in 6.2 mi SE 9.2 mph - N/A Rain Light Rain Showers
8:25 AM 78.8 °F - 77.0 °F 94% 29.92 in 6.2 mi SSE 13.8 mph - N/A   Mostly Cloudy
8:30 AM 80.6 °F 87.1 °F 77.0 °F 89% 29.92 in 6.2 mi SSE 13.8 mph - N/A   Mostly Cloudy
9:00 AM 80 °F - 76 °F 85% 29.94 in 6 mi SE 18.4 mph - - Rain Light Rain Showers
9:00 AM 80.6 °F 87.1 °F 77.0 °F 89% 29.92 in 5.6 mi SE 18.4 mph - N/A   Mostly Cloudy
9:09 AM 80.6 °F 87.1 °F 77.0 °F 89% 29.92 in 3.7 mi ESE 15.0 mph - N/A Rain Light Rain Showers
9:26 AM 78.8 °F - 77.0 °F 94% 29.95 in 2.5 mi SE 13.8 mph - N/A Rain Light Rain Showers
9:30 AM 78.8 °F - 77.0 °F 94% 29.95 in 1.9 mi SE 12.7 mph - N/A Rain Light Rain Showers
9:48 AM 78.8 °F - 77.0 °F 94% 29.95 in 6.2 mi SE 17.3 mph - N/A Rain Light Rain Showers
10:00 AM 80 °F - 76 °F 82% 29.96 in - SE 19.6 mph - -  
10:00 AM 78.8 °F - 75.2 °F 89% 29.95 in 6.2 mi SE 19.6 mph - N/A   Mostly Cloudy
10:13 AM 78.8 °F - 77.0 °F 94% 29.95 in 3.7 mi ESE 20.7 mph - N/A Rain Light Rain Showers
10:30 AM 78.8 °F - 77.0 °F 94% 29.95 in 3.1 mi ESE 19.6 mph - N/A Rain Light Rain Showers
10:32 AM 78.8 °F - 77.0 °F 94% 29.95 in 2.5 mi ESE 19.6 mph 31.1 mph N/A Rain Light Rain Showers
10:51 AM 78.8 °F - 77.0 °F 94% 29.95 in 6.2 mi SSE 11.5 mph - N/A   Mostly Cloudy
11:00 AM 78.8 °F - 77.0 °F 94% 29.95 in 6.2 mi SSE 12.7 mph - N/A   Mostly Cloudy
11:20 AM 78.8 °F - 77.0 °F 94% 29.92 in 6.2 mi SSE 10.4 mph - N/A Rain Light Rain Showers
11:30 AM 80.6 °F 87.1 °F 77.0 °F 89% 29.92 in 6.2 mi ESE 15.0 mph - N/A   Mostly Cloudy
11:51 AM 80.6 °F 86.2 °F 75.2 °F 84% 29.92 in 6.2 mi ESE 16.1 mph - N/A   Mostly Cloudy
12:00 PM 80 °F - 77 °F 89% 29.93 in 9 mi ESE 17.3 mph - - Rain Light Rain Showers
12:00 PM 80.6 °F 87.1 °F 77.0 °F 89% 29.92 in 6.2 mi ESE 17.3 mph - N/A Rain Light Rain Showers
12:30 PM 80.6 °F 87.1 °F 77.0 °F 89% 29.92 in 6.2 mi SE 12.7 mph - N/A   Mostly Cloudy
12:53 PM 78.8 °F - 77.0 °F 94% 29.89 in 6.2 mi SSE 10.4 mph - N/A   Mostly Cloudy
1:00 PM 79 °F - 77 °F 92% 29.91 in - SSE 10.4 mph - -  
1:00 PM 78.8 °F - 77.0 °F 94% 29.89 in 6.2 mi SSE 10.4 mph - N/A   Mostly Cloudy
1:30 PM 80.6 °F 87.1 °F 77.0 °F 89% 29.89 in 6.2 mi SSE 13.8 mph - N/A   Mostly Cloudy
1:42 PM 78.8 °F - 77.0 °F 94% 29.89 in 6.2 mi South 10.4 mph - N/A Rain Light Rain Showers
2:00 PM 80.6 °F 87.1 °F 77.0 °F 89% 29.86 in 3.7 mi SSE 9.2 mph - N/A Rain Light Rain Showers
2:30 PM 80.6 °F 87.1 °F 77.0 °F 89% 29.86 in 6.2 mi SSE 8.1 mph - N/A Rain Light Rain Showers
3:00 PM 81 °F - 77 °F 84% 29.86 in 12 mi SSE 9.2 mph - - Rain Light Rain Showers
3:00 PM 80.6 °F 87.1 °F 77.0 °F 89% 29.86 in 6.2 mi SSE 9.2 mph - N/A   Mostly Cloudy
3:30 PM 82.4 °F 90.9 °F 77.0 °F 84% 29.86 in 6.2 mi SE 12.7 mph - N/A   Mostly Cloudy
4:00 PM 82 °F - 76 °F 76% 29.87 in - SE 13.8 mph - -  
4:00 PM 82.4 °F 89.5 °F 75.2 °F 79% 29.86 in 6.2 mi SE 13.8 mph - N/A   Scattered Clouds
4:30 PM 82.4 °F 90.9 °F 77.0 °F 84% 29.86 in 6.2 mi SE 10.4 mph - N/A   Scattered Clouds
4:49 PM 80.6 °F 87.1 °F 77.0 °F 89% 29.86 in 4.3 mi SE 9.2 mph - N/A Rain Light Rain Showers
4:53 PM 80.6 °F 87.1 °F 77.0 °F 89% 29.86 in 3.1 mi SE 9.2 mph - N/A Rain Light Rain Showers
4:57 PM 78.8 °F - 77.0 °F 94% 29.86 in 4.3 mi SE 10.4 mph - N/A Rain Light Rain Showers
5:00 PM 78.8 °F - 75.2 °F 89% 29.86 in 4.3 mi SE 12.7 mph - N/A Rain Light Rain Showers
5:30 PM 78.8 °F - 77.0 °F 94% 29.89 in 6.2 mi SSE 8.1 mph - N/A   Mostly Cloudy
6:00 PM 79 °F - 76 °F 89% 29.89 in 12 mi SSE 8.1 mph - - Rain Light Rain Showers
6:00 PM 78.8 °F - 77.0 °F 94% 29.89 in 6.2 mi SSE 8.1 mph - N/A   Mostly Cloudy
6:30 PM 78.8 °F - 75.2 °F 89% 29.89 in 6.2 mi SSE 11.5 mph - N/A   Mostly Cloudy
7:00 PM 79 °F - 75 °F 85% 29.90 in - SSE 10.4 mph - -  
7:00 PM 78.8 °F - 75.2 °F 89% 29.89 in 6.2 mi SSE 10.4 mph - N/A   Mostly Cloudy
7:30 PM 78.8 °F - 75.2 °F 89% 29.89 in 6.2 mi South 8.1 mph - N/A   Mostly Cloudy
8:00 PM 78.8 °F - 75.2 °F 89% 29.89 in 6.2 mi South 8.1 mph - N/A   Mostly Cloudy
8:30 PM 78.8 °F - 75.2 °F 89% 29.92 in 6.2 mi South 10.4 mph - N/A   Mostly Cloudy
9:00 PM 79 °F - 75 °F 83% 29.91 in 16 mi South 10.4 mph - -   Partly Cloudy
9:00 PM 78.8 °F - 75.2 °F 89% 29.89 in 6.2 mi South 10.4 mph - N/A   Scattered Clouds
9:03 PM 78.8 °F - 75.2 °F 89% 29.89 in 6.2 mi South 10.4 mph - N/A   Scattered Clouds
9:30 PM 78.8 °F - 75.2 °F 89% 29.92 in 6.2 mi South 10.4 mph - N/A   Scattered Clouds
10:00 PM 78 °F - 74 °F 85% 29.92 in - South 13.8 mph - -  
10:00 PM 78.8 °F - 75.2 °F 89% 29.92 in 6.2 mi South 13.8 mph - N/A Rain Light Rain Showers
10:30 PM 78.8 °F - 75.2 °F 89% 29.92 in 6.2 mi South 10.4 mph - N/A Rain Light Rain Showers
11:00 PM 78.8 °F - 75.2 °F 89% 29.92 in 6.2 mi South 11.5 mph - N/A   Partly Cloudy
11:30 PM 78.8 °F - 73.4 °F 83% 29.89 in 6.2 mi South 11.5 mph - N/A   Scattered Clouds